Flag for Germany Weather past 2 weeks in Nürtingen, Baden-Württemberg, Germany

Now
68 °F

Sunny.


Feels Like: 68 °F
Forecast: 64 / 89 °F
Wind: 2 mph from North

Location: Stuttgart-Echterdingen

Current Time: Aug 29, 2015 at 9:19:07 AM

Latest Report: Aug 29, 2015 at 8:50 AM


Visibility: 10 mi

Pressure: 30.21 "Hg

Humidity: 83%

Dew point: 63 °F

Location of NürtingenLocation

Historic Weather in Nürtingen — Graph

°F

Nürtingen temperature yesterday

Maximum temperature yesterday: 79 °F (at 12:20 PM)
Minimum temperature yesterday: 68 °F (at 4:20 AM)
Average temperature yesterday: 73 °F

Past Weeks' High & Low Weather Summary

 TemperatureHumidityPressure
High88 °F (Aug 27, 4:20 PM)100% (Aug 15, 12:20 AM)30.27 "Hg (Aug 15, 12:20 AM)
Low48 °F (Aug 18, 5:20 AM)25% (Aug 27, 2:20 PM)29.71 "Hg (Aug 24, 1:50 PM)
Average65 °F72%30.01 "Hg
* Reported Aug 14 7:20 AM — Aug 29 7:50 AM, Nürtingen, Weather by CustomWeather, © 2015

Note: Actual official high and low records may vary slightly from our data, if they occured in-between our weather recording intervals... More about our weather records

Advertising

Nürtingen weather history for previous 24 hours

 ConditionsComfort  
Time TempWeatherWind HumidityBarometerVisibility
7:50 AM
Sat, Aug 29
66 °FSunny.No wind94%30.21 "Hg10 mi
7:20 AM64 °FClear.No wind94%30.21 "Hg10 mi
6:50 AM63 °FClear.1 mph100%30.21 "Hg10 mi
6:20 AM63 °FClear.1 mph100%30.21 "Hg10 mi
5:50 AM63 °FClear.1 mph94%30.21 "Hg10 mi
4:50 AM63 °FClear.2 mph94%30.21 "Hg10 mi
4:20 AM63 °FClear.5 mph94%30.21 "Hg10 mi
3:50 AM63 °FClear.1 mph94%30.21 "Hg10 mi
3:20 AM63 °FClear.1 mph94%30.21 "Hg10 mi
2:50 AM63 °FPassing clouds.5 mph94%30.21 "HgN/A
2:20 AM64 °FPassing clouds.5 mph88%30.21 "HgN/A
1:50 AM66 °FPassing clouds.2 mph88%30.21 "HgN/A
1:20 AM66 °FPassing clouds.No wind88%30.21 "HgN/A
12:50 AM66 °FPassing clouds.3 mph88%30.21 "HgN/A
12:20 AM66 °FClear.3 mph88%30.21 "Hg10 mi
11:50 PM
Fri, Aug 28
68 °FClear.3 mph88%30.18 "Hg10 mi
11:20 PM68 °FPassing clouds.2 mph88%30.18 "HgN/A
10:50 PM68 °FPassing clouds.5 mph88%30.18 "HgN/A
10:20 PM68 °FPassing clouds.5 mph88%30.18 "HgN/A
9:50 PM70 °FClear.9 mph83%30.18 "Hg10 mi
9:20 PM72 °FPassing clouds.7 mph78%30.15 "HgN/A
8:50 PM72 °FPassing clouds.5 mph73%30.15 "HgN/A
8:20 PM73 °FPassing clouds.7 mph69%30.15 "HgN/A
7:50 PM73 °FSunny.6 mph74%30.12 "Hg10 mi
7:20 PM75 °FPassing clouds.7 mph65%30.12 "HgN/A
6:50 PM77 °FPassing clouds.6 mph61%30.12 "HgN/A
6:20 PM77 °FPassing clouds.8 mph65%30.12 "HgN/A
5:50 PM77 °FPassing clouds.10 mph65%30.12 "HgN/A
5:20 PM79 °FPassing clouds.6 mph58%30.09 "HgN/A
4:50 PM79 °FPassing clouds.7 mph58%30.09 "HgN/A
4:20 PM79 °FBroken clouds.7 mph58%30.09 "HgN/A
3:50 PM79 °FPartly sunny.3 mph54%30.12 "HgN/A
3:20 PM77 °FPartly sunny.6 mph57%30.09 "HgN/A
2:50 PM77 °FPartly sunny.7 mph57%30.09 "HgN/A
2:20 PM77 °FPartly sunny.8 mph61%30.09 "HgN/A
1:50 PM77 °FPartly sunny.6 mph65%30.09 "HgN/A
1:20 PM75 °FPartly sunny.8 mph69%30.09 "HgN/A
12:50 PM75 °FPartly sunny.9 mph65%30.09 "HgN/A
12:20 PM79 °FPartly sunny.7 mph51%30.09 "HgN/A
11:50 AM77 °FPartly sunny.3 mph54%30.07 "HgN/A
11:20 AM77 °FBroken clouds.5 mph54%30.07 "HgN/A
10:50 AM77 °FPartly sunny.5 mph54%30.07 "HgN/A
10:20 AM75 °FPartly sunny.2 mph61%30.07 "HgN/A
9:50 AM73 °FPartly sunny.2 mph65%30.04 "HgN/A
9:20 AM72 °FPartly sunny.1 mph73%30.04 "HgN/A
Weather by CustomWeather, © 2015

See weather overviewHow to use our weather pages